OpenBCM V1.08-5-g2f4a (Linux)

Packet Radio Mailbox

IZ3LSV

[San Dona' di P. JN]

 Login: GUEST





  
I0OJJ  > KEPS     15.12.24 08:30l 355 Lines 16897 Bytes #128 (0) @ AMSAT
BID : ORB24350.1
Read: GUEST
Subj: 2Line Orbital Elements 24350.AMSAT
Path: IZ3LSV<I0OJJ
Sent: 241215/0730z @:I0OJJ.ITA.EU [Rome] obcm1.08-6-g5b69
From: I0OJJ @ I0OJJ.ITA.EU (Gustavo)
To:   KEPS @ AMSAT
X-Info: This message was generated automatically


QST de W1STR

AMSAT Orbital Elements for Amateur Satellites in TLE Format
From Orbital Analysis Office
New England Sci-Tech STEM Education Center
Natick, MA December 15, 2024
To all radio amateurs


These element sets describe the orbits of various satellites 
in use by the amateur radio community. For details see:
www.amsat.org/keplerian-elements-formats/

A daily update of element sets is available at:
www.amsat.org/tle/daily-bulletin.txt
or without bulletin text:
www.amsat.org/tle/dailytle.txt


AO-07
1 07530U 74089B   24349.51877637 -.00000033  00000-0  84369-4 0  9990
2 07530 101.9898 345.9304 0012393  99.9052  76.7234 12.53683772291873
UO-11
1 14781U 84021B   24349.17736083  .00002706  00000-0  29873-3 0  9990
2 14781  97.7302 313.4677 0007262 191.0142 169.0917 14.88246205196242
AO-27
1 22825U 93061C   24349.42633941  .00000273  00000-0  12160-3 0  9997
2 22825  98.7650  43.8724 0007339 271.9733  88.0608 14.30680392628651
FO-29
1 24278U 96046B   24349.15877562  .00000037  00000-0  70992-4 0  9992
2 24278  98.5881 260.2556 0350950  82.1691 281.9132 13.53225277399025
NOAA-15
1 25338U 98030A   24349.75455753  .00000363  00000-0  16717-3 0  9991
2 25338  98.5530  12.9968 0010758 151.7604 208.4162 14.26825553383180
GO-32
1 25397U 98043D   24348.18441846  .00000206  00000-0  10946-3 0  9998
2 25397  98.9480 317.8209 0001759  39.8077 320.3230 14.24210470372899
ISS
1 25544U 98067A   24349.95190958  .00016047  00000-0  28241-3 0  9996
2 25544  51.6381 139.7915 0007433 343.8593 160.5660 15.50594411486583
NO-44
1 26931U 01043C   24349.68962105  .00000361  00000-0  16664-3 0  9994
2 26931  67.0499 225.1299 0006710 260.5530  99.4813 14.31540186211947
SO-50
1 27607U 02058C   24349.71976459  .00002430  00000-0  33176-3 0  9999
2 27607  64.5555  26.0262 0035021  22.5872 337.6764 14.80505413183244
CO-55
1 27844U 03031E   24349.45619518  .00000749  00000-0  34717-3 0  9998
2 27844  98.6776 354.0374 0009438 348.2758  11.8200 14.23700393113466
CO-57
1 27848U 03031J   24348.48048266  .00000601  00000-0  28564-3 0  9990
2 27848  98.6806 353.2095 0009709   7.8360 352.2968 14.23077060113037
RS-22
1 27939U 03042A   24349.79852846  .00002502  00000-0  41243-3 0  9996
2 27939  98.3074 149.2828 0011162 205.0920 266.3331 14.71374978134829
NOAA-18
1 28654U 05018A   24349.73317115  .00000414  00000-0  24359-3 0  9994
2 28654  98.8610  65.0919 0013241 270.9686  88.9970 14.13452593  8767
CO-58
1 28895U 05043F   24349.31755417  .00003224  00000-0  54969-3 0  9996
2 28895  98.2237 125.9134 0015634 145.6578 214.5641 14.69626554 21122
CO-65
1 32785U 08021C   24349.16053549  .00007359  00000-0  58147-3 0  9993
2 32785  97.7702 313.7037 0013110 101.9091 258.3603 15.00900274902501
AAUSAT2
1 32788U 08021F   24349.18330858  .00060737  00000-0  16718-2 0  9995
2 32788  97.6041 332.2391 0001034  90.9716 269.1646 15.36950379905860
CO-66
1 32791U 08021J   24348.19951961  .00014692  00000-0  87560-3 0  9996
2 32791  97.7105 319.4470 0007343  67.0145 293.1858 15.11263843903564
RS-30
1 32953U 08025A   24349.74976261  .00000026  00000-0  11613-3 0  9994
2 32953  82.5031 337.1758 0020642  72.0296 288.3032 12.43155121751562
PRISM
1 33493U 09002B   24348.65238995  .00064843  00000-0  15954-2 0  9992
2 33493  98.1775  53.9099 0007712 343.9697  16.1302 15.40357602866459
NOAA-19
1 33591U 09005A   24349.78199852  .00000372  00000-0  22283-3 0  9998
2 33591  99.0245  47.2964 0014430 140.5154 219.7072 14.13229253817136
SRMSAT
1 37841U 11058D   24349.15914157  .00000568  00000-0  16528-3 0  9997
2 37841  19.9703 148.1004 0011701 273.8334 241.9814 14.11309593680236
RS-40
1 38735U 12041C   24349.12790122  .00000038  00000-0  20476-3 0  9993
2 38735  82.4771  57.6814 0017707 183.6556 176.4397 12.42621950561612
ZACUBE-1
1 39417U 13066B   24349.30341119  .00008008  00000-0  75381-3 0  9997
2 39417  97.7584 301.9283 0044893 284.5879  75.0364 14.93356702598426
Delfi-N3xt
1 39428U 13066N   24348.76035106  .00008791  00000-0  99215-3 0  9995
2 39428  97.8374 262.9527 0090035 223.8295 135.5751 14.83849357592844
GOMX-1
1 39430U 13066Q   24349.76182796  .00003421  00000-0  54922-3 0  9998
2 39430  97.7040 213.1679 0136818  38.1252 322.9536 14.66154223589483
LO-74
1 39440U 13066AA  24349.29032108  .00006785  00000-0  73381-3 0  9994
2 39440  97.8322 289.6490 0067310  45.0643 315.6005 14.86936501596261
AO-73
1 39444U 13066AE  24349.31649420  .00010095  00000-0  85418-3 0  9995
2 39444  97.7442 305.6807 0040800 260.7089  98.9518 14.97578928597609
DTUSAT-2
1 40030U 14033W   24349.77266362  .00011684  00000-0  85613-3 0  9995
2 40030  98.0343 307.8892 0008902 305.5447  54.4947 15.03677375570290
EO-80
1 40032U 14033Y   24348.60450702  .00009113  00000-0  66848-3 0  9994
2 40032  98.0230 306.5719 0006781 233.8973 126.1624 15.03720677570104
XW-2C
1 40906U 15049H   24349.76767564  .00135903  00000-0  10694-2 0  9991
2 40906  97.4543  14.0407 0004756  31.4487 328.7059 15.71047573512505
LILACSAT-2
1 40908U 15049K   24349.79577463  .00014658  00000-0  46542-3 0  9998
2 40908  97.5181   0.5432 0012905  74.6469 285.6198 15.32682306511092
IO-86
1 40931U 15052B   24337.09180034  .00002217  00000-0  20975-3 0  9992
2 40931   5.9986 232.5457 0013173 302.5393  57.3463 14.78392648496340
ChubuSat-2
1 41338U 16012B   24349.20058575  .00008504  00000-0  47273-3 0  9996
2 41338  31.0014 308.9763 0011076 248.2227 111.7233 15.12302420484833
ChubuSat-3
1 41339U 16012C   24349.56704700  .00007555  00000-0  43172-3 0  9993
2 41339  31.0080 306.5675 0011166 254.0297 105.9112 15.11272591484852
Horyu-4
1 41340U 16012D   24349.07378439  .00022754  00000-0  85806-3 0  9995
2 41340  31.0001 235.8593 0008897   7.3881 352.6891 15.25830328485551
Lapan A3
1 41603U 16040E   24349.78439597  .00005291  00000-0  19760-3 0  9992
2 41603  97.1382 355.5808 0011604 169.9835 190.1638 15.27718571470770
Pratham
1 41783U 16059A   24348.92959457  .00001463  00000-0  27485-3 0  9998
2 41783  97.8289 359.8590 0032266 167.4821 192.7192 14.65769432438862
CAS-2T
1 41847U 16066G   24349.73471842  .00001843  00000-0  27380-3 0  9990
2 41847  98.4429  59.6664 0349346 353.2683   6.3877 14.42542409425510
CAS-4B
1 42759U 17034B   24349.82290193  .00039851  00000-0  92866-3 0  9998
2 42759  43.0140 276.9351 0013807 147.8138 212.3564 15.41489274415148
CAS-4A
1 42761U 17034D   24349.80317005  .00040842  00000-0  94182-3 0  9996
2 42761  43.0179 275.1796 0014830 155.9217 204.2336 15.41778383415152
D-SAT
1 42794U 17036AF  24349.15655419  .00010376  00000-0  64335-3 0  9992
2 42794  97.4957 325.1080 0099195 255.5406 103.4798 15.05848344407788
TechnoSat
1 42829U 17042E   24349.54955524  .00005787  00000-0  47594-3 0  9999
2 42829  97.3843 160.9348 0012604 181.2769 178.8425 14.99433934404179
AO-91
1 43017U 17073E   24349.09768157  .00011486  00000-0  63562-3 0  9993
2 43017  97.5477 218.6285 0193058  49.3536 312.4294 14.99416749382567
S-Net D
1 43186U 18014G   24349.67083987  .00008403  00000-0  54147-3 0  9995
2 43186  97.5774 248.6125 0011408 106.4303 253.8180 15.08523144375670
S-Net B
1 43187U 18014H   24349.67430186  .00008435  00000-0  54364-3 0  9999
2 43187  97.5778 248.5778 0012167 102.8442 257.4147 15.08507803375672
S-Net A
1 43188U 18014J   24348.67676529  .00007991  00000-0  51526-3 0  9995
2 43188  97.5782 247.7224 0011990 106.5854 253.6692 15.08508749375523
S-Net C
1 43189U 18014K   24347.68635157  .00007722  00000-0  49838-3 0  9993
2 43189  97.5791 246.7281 0013678 103.4766 256.7988 15.08471489373923
Ten-Koh
1 43677U 18084G   24348.92074496  .00004916  00000-0  41419-3 0  9992
2 43677  98.0778 148.3108 0014382 139.5536 220.6757 14.98615859333614
PO-101
1 43678U 18084H   24349.73226618  .00003124  00000-0  27778-3 0  9990
2 43678  98.0859 153.4461 0009472 147.9835 212.1963 14.96847069333919
QO-100
1 43700U 18090A   24348.67136598  .00000157  00000-0  00000+0 0  9990
2 43700   0.0017   0.0227 0002603 302.6479  47.6485  1.00270254 22400
MinXSS-2
1 43758U 18099A   24348.44508868  .00015803  00000-0  79592-3 0  9990
2 43758  97.5313  48.7455 0015046  62.6784 297.5979 15.17171249329885
AO-95
1 43770U 18099N   24348.08087329  .00011183  00000-0  65789-3 0  9998
2 43770  97.5224  42.5404 0013516 108.3618 251.9084 15.11741811329535
RANGE-B
1 43772U 18099Q   24349.14882639  .00021526  00000-0  10106-2 0  9999
2 43772  97.5012  48.1147 0004377  15.0567 345.0797 15.19644422329950
RANGE-A
1 43773U 18099R   24348.13774947  .00006373  00000-0  43968-3 0  9996
2 43773  97.4787  35.7880 0013814  84.7293 275.5510 15.06056741329339
MOVE-II
1 43780U 18099Y   24349.43638508  .00044158  00000-0  13658-2 0  9995
2 43780  97.4965  52.4402 0005076  69.2410 290.9376 15.33350132330368
SNUSat 2
1 43782U 18099AA  24349.10170753  .00010501  00000-0  64811-3 0  9997
2 43782  97.4901  41.6232 0014216  50.1278 310.1199 15.10006919329674
SnugLite
1 43784U 18099AC  24349.40376253  .00011135  00000-0  65093-3 0  9992
2 43784  97.4713  41.2375 0005146  62.8167 297.3588 15.12035843329814
ITASat 1
1 43786U 18099AE  24348.08365608  .00008267  00000-0  52607-3 0  9998
2 43786  97.4875  40.5843 0017229 100.4985 259.8186 15.08915364329502
EAGLET 1
1 43790U 18099AJ  24348.09714296  .00006448  00000-0  44221-3 0  9997
2 43790  97.5065  40.9881 0014166  81.9083 278.3751 15.06274281329175
ESEO
1 43792U 18099AL  24349.13104734  .00002814  00000-0  22265-3 0  9992
2 43792  97.4833  37.4456 0009728  49.6351 310.5721 15.01359687329181
CSIM
1 43793U 18099AM  24349.60860677  .00049290  00000-0  15432-2 0  9996
2 43793  97.5116  54.4749 0008674  41.7566 318.4336 15.32910287330231
